Time,TemperatureF,DewpointF,PressureIn,WindDirection,WindDirectionDegrees,WindSpeedMPH,WindSpeedGustMPH,Humidity,HourlyPrecipIn,Conditions,Clouds,dailyrainin,SoftwareType,DateUTC
2013-01-29 00:00:00,44.4,41.9,30.22,WSW,248,4.0,9.0,91,0.00,,,0.00,WUHU216DAVISVP2,2013-01-29 05:00:00,
2013-01-29 00:01:00,44.4,41.9,30.22,SW,226,8.0,9.0,91,0.00,,,0.00,WUHU216DAVISVP2,2013-01-29 05:01:00,
2013-01-29 00:02:00,44.4,42.2,30.23,WSW,248,5.0,9.0,92,0.00,,,0.00,WUHU216DAVISVP2,2013-01-29 05:02:00,
2013-01-29 00:03:00,44.4,41.9,30.22,WSW,238,3.0,9.0,91,0.00,,,0.00,WUHU216DAVISVP2,2013-01-29 05:03:00,
2013-01-29 00:08:00,44.5,42.0,30.22,SSW,202,4.0,9.0,91,0.00,,,0.00,WUHU216DAVISVP2,2013-01-29 05:08:00,
2013-01-29 00:13:00,44.5,42.3,30.22,WSW,252,7.0,12.0,92,0.00,,,0.00,WUHU216DAVISVP2,2013-01-29 05:13:00,
2013-01-29 00:18:00,44.5,42.0,30.22,SW,236,12.0,13.0,91,0.00,,,0.00,WUHU216DAVISVP2,2013-01-29 05:18:00,
2013-01-29 00:23:00,44.5,42.0,30.22,West,267,2.0,13.0,91,0.00,,,0.00,WUHU216DAVISVP2,2013-01-29 05:23:00,
2013-01-29 00:28:00,44.5,42.3,30.22,WSW,243,6.0,12.0,92,0.00,,,0.00,WUHU216DAVISVP2,2013-01-29 05:28:00,
2013-01-29 00:30:00,44.5,42.3,30.22,SW,225,5.0,13.0,92,0.00,,,0.00,WUHU216DAVISVP2,2013-01-29 05:30:00,
2013-01-29 00:33:00,44.6,42.4,30.22,WSW,252,6.0,12.0,92,0.00,,,0.00,WUHU216DAVISVP2,2013-01-29 05:33:00,
2013-01-29 00:38:00,44.7,42.5,30.22,WSW,242,6.0,13.0,92,0.00,,,0.00,WUHU216DAVISVP2,2013-01-29 05:38:00,
2013-01-29 00:43:00,44.6,42.4,30.22,WSW,245,7.0,13.0,92,0.00,,,0.00,WUHU216DAVISVP2,2013-01-29 05:43:00,
2013-01-29 00:48:00,44.7,42.5,30.22,WSW,250,10.0,12.0,92,0.00,,,0.00,WUHU216DAVISVP2,2013-01-29 05:48:00,
2013-01-29 00:53:00,44.8,42.6,30.21,SW,221,3.0,14.0,92,0.00,,,0.00,WUHU216DAVISVP2,2013-01-29 05:53:00,
2013-01-29 00:58:00,45.0,42.8,30.21,WSW,238,4.0,14.0,92,0.00,,,0.00,WUHU216DAVISVP2,2013-01-29 05:58:00,
2013-01-29 01:00:00,45.0,42.8,30.21,WSW,248,6.0,14.0,92,0.00,,,0.00,WUHU216DAVISVP2,2013-01-29 06:00:00,
2013-01-29 01:03:00,45.0,42.5,30.21,SW,229,12.0,13.0,91,0.00,,,0.00,WUHU216DAVISVP2,2013-01-29 06:03:00,
2013-01-29 01:08:00,45.0,42.5,30.21,SW,215,8.0,12.0,91,0.00,,,0.00,WUHU216DAVISVP2,2013-01-29 06:08:00,
2013-01-29 01:13:00,44.9,42.4,30.21,WSW,252,5.0,12.0,91,0.00,,,0.00,WUHU216DAVISVP2,2013-01-29 06:13:00,
2013-01-29 01:18:00,44.8,42.3,30.21,West,263,6.0,12.0,91,0.00,,,0.00,WUHU216DAVISVP2,2013-01-29 06:18:00,
2013-01-29 01:23:00,44.7,42.2,30.21,SW,233,10.0,15.0,91,0.00,,,0.00,WUHU216DAVISVP2,2013-01-29 06:23:00,
2013-01-29 01:28:00,44.5,42.3,30.21,West,268,5.0,15.0,92,0.00,,,0.00,WUHU216DAVISVP2,2013-01-29 06:28:00,
2013-01-29 01:30:00,44.5,42.3,30.21,WSW,248,7.0,15.0,92,0.00,,,0.00,WUHU216DAVISVP2,2013-01-29 06:30:00,
2013-01-29 01:33:00,44.5,42.3,30.21,WSW,242,9.0,14.0,92,0.00,,,0.00,WUHU216DAVISVP2,2013-01-29 06:33:00,
2013-01-29 01:38:00,44.6,42.4,30.21,SW,236,3.0,15.0,92,0.00,,,0.00,WUHU216DAVISVP2,2013-01-29 06:38:00,
2013-01-29 01:43:00,44.6,42.4,30.21,WSW,246,5.0,15.0,92,0.00,,,0.00,WUHU216DAVISVP2,2013-01-29 06:43:00,
2013-01-29 01:48:00,44.5,42.3,30.21,SW,218,4.0,14.0,92,0.00,,,0.00,WUHU216DAVISVP2,2013-01-29 06:48:00,
2013-01-29 01:53:00,44.5,42.3,30.21,SW,229,6.0,14.0,92,0.00,,,0.00,WUHU216DAVISVP2,2013-01-29 06:53:00,
2013-01-29 01:58:00,44.5,42.3,30.21,SW,232,4.0,13.0,92,0.00,,,0.00,WUHU216DAVISVP2,2013-01-29 06:58:00,
2013-01-29 02:00:00,44.5,42.3,30.21,WSW,248,6.0,15.0,92,0.00,,,0.00,WUHU216DAVISVP2,2013-01-29 07:00:00,
2013-01-29 02:03:00,44.5,42.3,30.21,SW,229,6.0,13.0,92,0.00,,,0.00,WUHU216DAVISVP2,2013-01-29 07:03:00,
2013-01-29 02:08:00,44.6,42.4,30.21,WSW,246,6.0,12.0,92,0.00,,,0.00,WUHU216DAVISVP2,2013-01-29 07:08:00,
2013-01-29 02:13:00,44.7,42.5,30.21,WSW,248,8.0,12.0,92,0.00,,,0.00,WUHU216DAVISVP2,2013-01-29 07:13:00,
2013-01-29 02:18:00,44.7,42.5,30.21,NE,39,2.0,12.0,92,0.00,,,0.00,WUHU216DAVISVP2,2013-01-29 07:18:00,
2013-01-29 02:23:00,44.7,42.5,30.21,WSW,253,3.0,13.0,92,0.00,,,0.00,WUHU216DAVISVP2,2013-01-29 07:23:00,
2013-01-29 02:28:00,44.6,42.4,30.21,SW,224,3.0,14.0,92,0.00,,,0.00,WUHU216DAVISVP2,2013-01-29 07:28:00,
2013-01-29 02:30:00,44.6,42.4,30.21,SW,225,6.0,14.0,92,0.00,,,0.00,WUHU216DAVISVP2,2013-01-29 07:30:00,
2013-01-29 02:33:00,44.5,42.3,30.21,WSW,243,11.0,15.0,92,0.00,,,0.00,WUHU216DAVISVP2,2013-01-29 07:33:00,
2013-01-29 02:38:00,44.5,42.3,30.21,SW,218,6.0,15.0,92,0.00,,,0.00,WUHU216DAVISVP2,2013-01-29 07:38:00,
2013-01-29 02:43:00,44.5,42.3,30.21,SSW,211,6.0,14.0,92,0.00,,,0.00,WUHU216DAVISVP2,2013-01-29 07:43:00,
2013-01-29 02:48:00,44.5,42.3,30.21,SW,229,4.0,14.0,92,0.00,,,0.00,WUHU216DAVISVP2,2013-01-29 07:48:00,
2013-01-29 02:53:00,44.5,42.3,30.21,WSW,257,3.0,12.0,92,0.00,,,0.00,WUHU216DAVISVP2,2013-01-29 07:53:00,
2013-01-29 02:58:00,44.4,42.2,30.21,West,268,3.0,9.0,92,0.00,,,0.00,WUHU216DAVISVP2,2013-01-29 07:58:00,
2013-01-29 03:00:00,44.3,42.1,30.21,WSW,248,5.0,15.0,92,0.00,,,0.00,WUHU216DAVISVP2,2013-01-29 08:00:00,
2013-01-29 03:03:00,44.2,42.0,30.21,SSW,212,5.0,8.0,92,0.00,,,0.00,WUHU216DAVISVP2,2013-01-29 08:03:00,
2013-01-29 03:08:00,44.0,41.8,30.21,WSW,254,5.0,8.0,92,0.00,,,0.00,WUHU216DAVISVP2,2013-01-29 08:08:00,
2013-01-29 03:13:00,43.9,42.0,30.20,SSW,210,2.0,8.0,93,0.00,,,0.00,WUHU216DAVISVP2,2013-01-29 08:13:00,
2013-01-29 03:18:00,43.8,41.9,30.20,WSW,250,2.0,6.0,93,0.00,,,0.00,WUHU216DAVISVP2,2013-01-29 08:18:00,
2013-01-29 03:23:00,43.8,41.9,30.20,WSW,253,6.0,6.0,93,0.00,,,0.00,WUHU216DAVISVP2,2013-01-29 08:23:00,
2013-01-29 03:28:00,43.6,41.7,30.20,SW,221,3.0,6.0,93,0.00,,,0.00,WUHU216DAVISVP2,2013-01-29 08:28:00,
2013-01-29 03:30:00,43.6,41.7,30.20,WSW,248,3.0,6.0,93,0.00,,,0.00,WUHU216DAVISVP2,2013-01-29 08:30:00,
2013-01-29 03:33:00,43.5,41.6,30.21,WSW,243,2.0,6.0,93,0.00,,,0.00,WUHU216DAVISVP2,2013-01-29 08:33:00,
2013-01-29 03:38:00,43.3,41.4,30.20,SW,236,6.0,7.0,93,0.00,,,0.00,WUHU216DAVISVP2,2013-01-29 08:38:00,
2013-01-29 03:43:00,43.3,41.7,30.21,WSW,250,5.0,7.0,94,0.00,,,0.00,WUHU216DAVISVP2,2013-01-29 08:43:00,
2013-01-29 03:48:00,43.2,41.5,30.20,WSW,254,3.0,7.0,94,0.00,,,0.00,WUHU216DAVISVP2,2013-01-29 08:48:00,
2013-01-29 03:53:00,43.1,41.4,30.20,WSW,253,5.0,8.0,94,0.00,,,0.00,WUHU216DAVISVP2,2013-01-29 08:53:00,
2013-01-29 03:58:00,43.1,41.4,30.20,SSW,211,2.0,10.0,94,0.00,,,0.00,WUHU216DAVISVP2,2013-01-29 08:58:00,
2013-01-29 04:00:00,43.1,41.5,30.20,WSW,248,4.0,10.0,94,0.00,,,0.00,WUHU216DAVISVP2,2013-01-29 09:00:00,
2013-01-29 04:03:00,43.1,41.4,30.19,SW,225,5.0,10.0,94,0.00,,,0.00,WUHU216DAVISVP2,2013-01-29 09:03:00,
2013-01-29 04:08:00,43.0,41.4,30.19,SSW,212,3.0,9.0,94,0.00,,,0.00,WUHU216DAVISVP2,2013-01-29 09:08:00,
2013-01-29 04:13:00,43.1,41.4,30.19,SW,229,2.0,9.0,94,0.00,,,0.00,WUHU216DAVISVP2,2013-01-29 09:13:00,
2013-01-29 04:18:00,43.0,41.3,30.19,WSW,245,4.0,13.0,94,0.00,,,0.00,WUHU216DAVISVP2,2013-01-29 09:18:00,
2013-01-29 04:23:00,42.9,41.2,30.19,SSW,211,2.0,13.0,94,0.00,,,0.00,WUHU216DAVISVP2,2013-01-29 09:23:00,
2013-01-29 04:28:00,42.9,41.2,30.19,WSW,243,6.0,12.0,94,0.00,,,0.00,WUHU216DAVISVP2,2013-01-29 09:28:00,
2013-01-29 04:30:00,42.9,41.3,30.19,SW,225,4.0,13.0,94,0.00,,,0.00,WUHU216DAVISVP2,2013-01-29 09:30:00,
2013-01-29 04:33:00,42.8,41.5,30.19,WSW,238,5.0,12.0,95,0.00,,,0.00,WUHU216DAVISVP2,2013-01-29 09:33:00,
2013-01-29 04:38:00,42.8,41.4,30.19,WSW,246,1.0,10.0,95,0.00,,,0.00,WUHU216DAVISVP2,2013-01-29 09:38:00,
2013-01-29 04:43:00,42.7,41.3,30.19,SW,235,5.0,10.0,95,0.00,,,0.00,WUHU216DAVISVP2,2013-01-29 09:43:00,
2013-01-29 04:48:00,42.7,41.3,30.19,SSW,208,4.0,9.0,95,0.00,,,0.00,WUHU216DAVISVP2,2013-01-29 09:48:00,
2013-01-29 04:53:00,42.7,41.3,30.19,WSW,252,3.0,11.0,95,0.00,,,0.00,WUHU216DAVISVP2,2013-01-29 09:53:00,
2013-01-29 04:58:00,42.7,41.3,30.19,SW,214,5.0,11.0,95,0.00,,,0.00,WUHU216DAVISVP2,2013-01-29 09:58:00,
2013-01-29 05:00:00,42.7,41.4,30.19,WSW,248,4.0,11.0,95,0.00,,,0.00,WUHU216DAVISVP2,2013-01-29 10:00:00,
2013-01-29 05:03:00,42.7,41.3,30.19,WSW,243,3.0,11.0,95,0.00,,,0.00,WUHU216DAVISVP2,2013-01-29 10:03:00,
2013-01-29 05:08:00,42.7,41.3,30.20,West,269,3.0,12.0,95,0.00,,,0.00,WUHU216DAVISVP2,2013-01-29 10:08:00,
2013-01-29 05:13:00,42.7,41.6,30.19,SW,235,3.0,12.0,96,0.00,,,0.00,WUHU216DAVISVP2,2013-01-29 10:13:00,
2013-01-29 05:18:00,42.6,41.5,30.19,WSW,252,4.0,11.0,96,0.00,,,0.00,WUHU216DAVISVP2,2013-01-29 10:18:00,
2013-01-29 05:23:00,42.6,41.5,30.20,WSW,242,3.0,11.0,96,0.00,,,0.00,WUHU216DAVISVP2,2013-01-29 10:23:00,
2013-01-29 05:28:00,42.5,41.4,30.19,SW,225,2.0,9.0,96,0.00,,,0.00,WUHU216DAVISVP2,2013-01-29 10:28:00,
2013-01-29 05:30:00,42.5,41.4,30.19,WSW,248,4.0,12.0,96,0.00,,,0.00,WUHU216DAVISVP2,2013-01-29 10:30:00,
2013-01-29 05:33:00,42.4,41.3,30.20,WSW,252,4.0,7.0,96,0.00,,,0.00,WUHU216DAVISVP2,2013-01-29 10:33:00,
2013-01-29 05:38:00,42.4,41.3,30.19,West,266,2.0,7.0,96,0.00,,,0.00,WUHU216DAVISVP2,2013-01-29 10:38:00,
2013-01-29 05:43:00,42.3,41.2,30.20,WSW,249,5.0,6.0,96,0.00,,,0.00,WUHU216DAVISVP2,2013-01-29 10:43:00,
2013-01-29 05:48:00,42.3,41.2,30.20,SW,233,3.0,6.0,96,0.00,,,0.00,WUHU216DAVISVP2,2013-01-29 10:48:00,
2013-01-29 05:53:00,42.3,41.2,30.20,WSW,248,3.0,8.0,96,0.00,,,0.00,WUHU216DAVISVP2,2013-01-29 10:53:00,
2013-01-29 05:58:00,42.2,41.1,30.20,SW,236,3.0,8.0,96,0.00,,,0.00,WUHU216DAVISVP2,2013-01-29 10:58:00,
2013-01-29 06:00:00,42.2,41.1,30.20,WSW,248,3.0,8.0,96,0.00,,,0.00,WUHU216DAVISVP2,2013-01-29 11:00:00,
2013-01-29 06:03:00,42.3,41.2,30.20,WSW,252,4.0,8.0,96,0.00,,,0.00,WUHU216DAVISVP2,2013-01-29 11:03:00,
2013-01-29 06:08:00,42.2,41.1,30.20,WSW,249,4.0,8.0,96,0.00,,,0.00,WUHU216DAVISVP2,2013-01-29 11:08:00,
2013-01-29 06:13:00,42.2,41.4,30.20,WSW,255,3.0,7.0,97,0.00,,,0.00,WUHU216DAVISVP2,2013-01-29 11:13:00,
2013-01-29 06:18:00,42.2,41.4,30.20,WSW,256,3.0,7.0,97,0.00,,,0.00,WUHU216DAVISVP2,2013-01-29 11:18:00,
2013-01-29 06:23:00,42.2,41.4,30.20,WSW,242,2.0,6.0,97,0.00,,,0.00,WUHU216DAVISVP2,2013-01-29 11:23:00,
2013-01-29 06:28:00,42.2,41.4,30.19,SW,233,1.0,5.0,97,0.00,,,0.00,WUHU216DAVISVP2,2013-01-29 11:28:00,
2013-01-29 06:30:00,42.2,41.4,30.19,WSW,248,3.0,8.0,97,0.00,,,0.00,WUHU216DAVISVP2,2013-01-29 11:30:00,
2013-01-29 06:33:00,42.2,41.4,30.19,SW,219,3.0,5.0,97,0.00,,,0.00,WUHU216DAVISVP2,2013-01-29 11:33:00,
2013-01-29 06:38:00,42.2,41.4,30.20,SW,229,0.0,4.0,97,0.00,,,0.00,WUHU216DAVISVP2,2013-01-29 11:38:00,
2013-01-29 06:43:00,42.2,41.4,30.20,SW,235,0.0,4.0,97,0.00,,,0.00,WUHU216DAVISVP2,2013-01-29 11:43:00,
2013-01-29 06:48:00,42.2,41.4,30.20,WSW,243,0.0,4.0,97,0.00,,,0.00,WUHU216DAVISVP2,2013-01-29 11:48:00,
2013-01-29 06:53:00,42.2,41.4,30.20,SW,229,0.0,4.0,97,0.00,,,0.00,WUHU216DAVISVP2,2013-01-29 11:53:00,
2013-01-29 06:58:00,42.2,41.4,30.20,WSW,243,1.0,4.0,97,0.00,,,0.00,WUHU216DAVISVP2,2013-01-29 11:58:00,
2013-01-29 07:00:00,42.3,41.5,30.20,SW,225,1.0,4.0,97,0.00,,,0.00,WUHU216DAVISVP2,2013-01-29 12:00:00,
2013-01-29 07:03:00,42.3,41.5,30.20,SW,215,1.0,4.0,97,0.00,,,0.00,WUHU216DAVISVP2,2013-01-29 12:03:00,
2013-01-29 07:08:00,42.3,41.5,30.20,SW,231,2.0,5.0,97,0.00,,,0.00,WUHU216DAVISVP2,2013-01-29 12:08:00,
2013-01-29 07:13:00,42.3,41.5,30.20,SW,219,1.0,5.0,97,0.00,,,0.00,WUHU216DAVISVP2,2013-01-29 12:13:00,
2013-01-29 07:18:00,42.2,41.4,30.20,WSW,249,6.0,6.0,97,0.00,,,0.00,WUHU216DAVISVP2,2013-01-29 12:18:00,
2013-01-29 07:23:00,42.2,41.4,30.20,SW,228,2.0,6.0,97,0.00,,,0.00,WUHU216DAVISVP2,2013-01-29 12:23:00,
2013-01-29 07:28:00,42.2,41.4,30.20,WSW,238,4.0,6.0,97,0.00,,,0.00,WUHU216DAVISVP2,2013-01-29 12:28:00,
2013-01-29 07:30:00,42.2,41.4,30.20,WSW,248,2.0,6.0,97,0.00,,,0.00,WUHU216DAVISVP2,2013-01-29 12:30:00,
2013-01-29 07:33:00,42.2,41.4,30.20,SW,226,1.0,6.0,97,0.00,,,0.00,WUHU216DAVISVP2,2013-01-29 12:33:00,
2013-01-29 07:38:00,42.2,41.4,30.20,WSW,239,2.0,6.0,97,0.00,,,0.00,WUHU216DAVISVP2,2013-01-29 12:38:00,
2013-01-29 07:43:00,42.2,41.4,30.20,WSW,249,2.0,4.0,97,0.00,,,0.00,WUHU216DAVISVP2,2013-01-29 12:43:00,
2013-01-29 07:48:00,42.2,41.4,30.20,SSW,212,1.0,4.0,97,0.00,,,0.00,WUHU216DAVISVP2,2013-01-29 12:48:00,
2013-01-29 07:53:00,42.3,41.5,30.20,WSW,238,4.0,4.0,97,0.00,,,0.00,WUHU216DAVISVP2,2013-01-29 12:53:00,
2013-01-29 07:58:00,42.4,41.6,30.20,WSW,246,1.0,4.0,97,0.00,,,0.00,WUHU216DAVISVP2,2013-01-29 12:58:00,
2013-01-29 08:00:00,42.4,41.6,30.20,SW,225,2.0,4.0,97,0.00,,,0.00,WUHU216DAVISVP2,2013-01-29 13:00:00,
2013-01-29 08:03:00,42.5,41.7,30.20,WSW,242,2.0,4.0,97,0.00,,,0.00,WUHU216DAVISVP2,2013-01-29 13:03:00,
2013-01-29 08:08:00,42.7,41.9,30.21,WSW,242,5.0,5.0,97,0.00,,,0.00,WUHU216DAVISVP2,2013-01-29 13:08:00,
2013-01-29 08:13:00,42.7,41.9,30.21,West,277,2.0,6.0,97,0.00,,,0.00,WUHU216DAVISVP2,2013-01-29 13:13:00,
2013-01-29 08:18:00,42.8,41.7,30.21,SW,225,1.0,6.0,96,0.00,,,0.00,WUHU216DAVISVP2,2013-01-29 13:18:00,
2013-01-29 08:23:00,42.8,41.7,30.21,WSW,256,1.0,6.0,96,0.00,,,0.00,WUHU216DAVISVP2,2013-01-29 13:23:00,
2013-01-29 08:28:00,42.7,41.6,30.21,SW,232,3.0,7.0,96,0.00,,,0.00,WUHU216DAVISVP2,2013-01-29 13:28:00,
2013-01-29 08:30:00,42.7,41.6,30.21,SW,225,2.0,7.0,96,0.00,,,0.00,WUHU216DAVISVP2,2013-01-29 13:30:00,
2013-01-29 08:33:00,42.5,41.4,30.21,SW,229,1.0,7.0,96,0.00,,,0.00,WUHU216DAVISVP2,2013-01-29 13:33:00,
2013-01-29 08:38:00,42.6,41.5,30.21,WSW,252,1.0,6.0,96,0.00,,,0.00,WUHU216DAVISVP2,2013-01-29 13:38:00,
2013-01-29 08:43:00,42.6,41.5,30.21,WSW,239,3.0,6.0,96,0.00,,,0.00,WUHU216DAVISVP2,2013-01-29 13:43:00,
2013-01-29 08:48:00,42.7,41.6,30.21,WSW,248,5.0,8.0,96,0.00,,,0.00,WUHU216DAVISVP2,2013-01-29 13:48:00,
2013-01-29 08:53:00,42.7,41.9,30.22,SW,228,4.0,8.0,97,0.00,,,0.00,WUHU216DAVISVP2,2013-01-29 13:53:00,
2013-01-29 08:58:00,42.7,41.9,30.22,SW,228,6.0,8.0,97,0.00,,,0.00,WUHU216DAVISVP2,2013-01-29 13:58:00,
2013-01-29 09:00:00,42.7,41.9,30.22,WSW,248,3.0,10.0,97,0.00,,,0.00,WUHU216DAVISVP2,2013-01-29 14:00:00,
2013-01-29 09:03:00,42.7,41.9,30.21,WSW,249,3.0,10.0,97,0.00,,,0.00,WUHU216DAVISVP2,2013-01-29 14:03:00,
2013-01-29 09:08:00,42.7,41.9,30.21,WSW,248,2.0,10.0,97,0.00,,,0.00,WUHU216DAVISVP2,2013-01-29 14:08:00,
2013-01-29 09:13:00,42.8,42.0,30.22,WSW,246,2.0,9.0,97,0.00,,,0.00,WUHU216DAVISVP2,2013-01-29 14:13:00,
2013-01-29 09:18:00,43.0,42.2,30.22,West,266,3.0,9.0,97,0.00,,,0.00,WUHU216DAVISVP2,2013-01-29 14:18:00,
2013-01-29 09:23:00,43.2,42.4,30.22,SW,229,3.0,5.0,97,0.00,,,0.00,WUHU216DAVISVP2,2013-01-29 14:23:00,
2013-01-29 09:28:00,43.6,42.8,30.21,SW,226,3.0,5.0,97,0.00,,,0.00,WUHU216DAVISVP2,2013-01-29 14:28:00,
2013-01-29 09:30:00,43.7,42.9,30.21,WSW,248,2.0,7.0,97,0.00,,,0.00,WUHU216DAVISVP2,2013-01-29 14:30:00,
2013-01-29 09:33:00,43.8,43.0,30.21,WSW,249,4.0,7.0,97,0.00,,,0.00,WUHU216DAVISVP2,2013-01-29 14:33:00,
2013-01-29 09:38:00,44.0,43.2,30.21,WSW,246,4.0,7.0,97,0.00,,,0.00,WUHU216DAVISVP2,2013-01-29 14:38:00,
2013-01-29 09:43:00,44.0,42.9,30.21,WNW,284,3.0,9.0,96,0.00,,,0.00,WUHU216DAVISVP2,2013-01-29 14:43:00,
2013-01-29 09:48:00,44.2,43.1,30.21,WSW,245,6.0,9.0,96,0.00,,,0.00,WUHU216DAVISVP2,2013-01-29 14:48:00,
2013-01-29 09:53:00,44.4,43.3,30.21,SSW,211,3.0,9.0,96,0.00,,,0.00,WUHU216DAVISVP2,2013-01-29 14:53:00,
2013-01-29 09:58:00,44.5,43.4,30.21,SW,232,0.0,8.0,96,0.00,,,0.00,WUHU216DAVISVP2,2013-01-29 14:58:00,
2013-01-29 10:00:00,44.6,43.5,30.21,SW,225,4.0,9.0,96,0.00,,,0.00,WUHU216DAVISVP2,2013-01-29 15:00:00,
2013-01-29 10:03:00,45.1,44.0,30.21,West,267,2.0,7.0,96,0.00,,,0.00,WUHU216DAVISVP2,2013-01-29 15:03:00,
2013-01-29 10:08:00,45.6,44.2,30.22,West,273,4.0,7.0,95,0.00,,,0.00,WUHU216DAVISVP2,2013-01-29 15:08:00,
2013-01-29 10:13:00,45.9,44.2,30.22,SW,229,6.0,9.0,94,0.00,,,0.00,WUHU216DAVISVP2,2013-01-29 15:13:00,
2013-01-29 10:18:00,46.0,44.3,30.21,SW,222,2.0,9.0,94,0.00,,,0.00,WUHU216DAVISVP2,2013-01-29 15:18:00,
2013-01-29 10:23:00,46.5,44.6,30.22,WSW,238,7.0,8.0,93,0.00,,,0.00,WUHU216DAVISVP2,2013-01-29 15:23:00,
2013-01-29 10:28:00,47.1,44.9,30.22,SW,217,4.0,8.0,92,0.00,,,0.00,WUHU216DAVISVP2,2013-01-29 15:28:00,
2013-01-29 10:30:00,47.1,44.9,30.22,WSW,248,4.0,9.0,92,0.00,,,0.00,WUHU216DAVISVP2,2013-01-29 15:30:00,
2013-01-29 10:33:00,47.5,45.0,30.22,SSW,210,3.0,8.0,91,0.00,,,0.00,WUHU216DAVISVP2,2013-01-29 15:33:00,
2013-01-29 10:38:00,47.9,45.4,30.22,SW,226,3.0,8.0,91,0.00,,,0.00,WUHU216DAVISVP2,2013-01-29 15:38:00,
2013-01-29 10:43:00,48.5,46.0,30.22,WSW,252,1.0,8.0,91,0.00,,,0.00,WUHU216DAVISVP2,2013-01-29 15:43:00,
2013-01-29 10:48:00,49.4,46.0,30.22,SSW,213,5.0,8.0,88,0.00,,,0.00,WUHU216DAVISVP2,2013-01-29 15:48:00,
2013-01-29 10:53:00,50.0,46.3,30.22,SSW,201,2.0,8.0,87,0.00,,,0.00,WUHU216DAVISVP2,2013-01-29 15:53:00,
2013-01-29 10:58:00,50.6,46.6,30.22,SSW,207,4.0,11.0,86,0.00,,,0.00,WUHU216DAVISVP2,2013-01-29 15:58:00,
2013-01-29 11:00:00,50.6,46.3,30.22,SW,225,4.0,11.0,85,0.00,,,0.00,WUHU216DAVISVP2,2013-01-29 16:00:00,
2013-01-29 11:03:00,50.8,46.8,30.22,SW,232,4.0,12.0,86,0.00,,,0.00,WUHU216DAVISVP2,2013-01-29 16:03:00,
2013-01-29 11:08:00,51.2,46.8,30.21,West,270,5.0,12.0,85,0.00,,,0.00,WUHU216DAVISVP2,2013-01-29 16:08:00,
2013-01-29 11:13:00,51.7,47.3,30.21,SW,229,8.0,11.0,85,0.00,,,0.00,WUHU216DAVISVP2,2013-01-29 16:13:00,
2013-01-29 11:18:00,52.0,47.3,30.21,SSE,160,1.0,11.0,84,0.00,,,0.00,WUHU216DAVISVP2,2013-01-29 16:18:00,
2013-01-29 11:23:00,53.0,48.0,30.21,WSW,242,6.0,11.0,83,0.00,,,0.00,WUHU216DAVISVP2,2013-01-29 16:23:00,
2013-01-29 11:28:00,53.4,47.7,30.20,West,260,4.0,10.0,81,0.00,,,0.00,WUHU216DAVISVP2,2013-01-29 16:28:00,
2013-01-29 11:30:00,53.5,47.8,30.20,WSW,248,5.0,12.0,81,0.00,,,0.00,WUHU216DAVISVP2,2013-01-29 16:30:00,
2013-01-29 11:33:00,53.8,48.1,30.20,SW,214,4.0,10.0,81,0.00,,,0.00,WUHU216DAVISVP2,2013-01-29 16:33:00,
2013-01-29 11:38:00,54.5,48.5,30.20,South,191,3.0,9.0,80,0.00,,,0.00,WUHU216DAVISVP2,2013-01-29 16:38:00,
2013-01-29 11:43:00,54.9,48.6,30.19,SW,214,1.0,9.0,79,0.00,,,0.00,WUHU216DAVISVP2,2013-01-29 16:43:00,
2013-01-29 11:48:00,55.6,48.6,30.18,SW,236,5.0,6.0,77,0.00,,,0.00,WUHU216DAVISVP2,2013-01-29 16:48:00,
2013-01-29 11:53:00,56.0,48.6,30.18,SW,219,2.0,6.0,76,0.00,,,0.00,WUHU216DAVISVP2,2013-01-29 16:53:00,
2013-01-29 11:58:00,56.8,49.3,30.18,SW,218,0.0,6.0,76,0.00,,,0.00,WUHU216DAVISVP2,2013-01-29 16:58:00,
2013-01-29 12:00:00,57.0,49.5,30.18,SW,225,2.0,6.0,76,0.00,,,0.00,WUHU216DAVISVP2,2013-01-29 17:00:00,
2013-01-29 12:03:00,57.5,49.3,30.17,WSW,243,3.0,5.0,74,0.00,,,0.00,WUHU216DAVISVP2,2013-01-29 17:03:00,
2013-01-29 12:08:00,58.1,49.1,30.17,SW,232,4.0,5.0,72,0.00,,,0.00,WUHU216DAVISVP2,2013-01-29 17:08:00,
2013-01-29 12:13:00,58.9,49.9,30.17,SE,146,0.0,4.0,72,0.00,,,0.00,WUHU216DAVISVP2,2013-01-29 17:13:00,
2013-01-29 12:18:00,60.1,50.4,30.16,East,93,1.0,4.0,70,0.00,,,0.00,WUHU216DAVISVP2,2013-01-29 17:18:00,
2013-01-29 12:23:00,60.8,50.2,30.16,SSW,201,0.0,4.0,68,0.00,,,0.00,WUHU216DAVISVP2,2013-01-29 17:23:00,
2013-01-29 12:28:00,61.1,50.2,30.16,SW,236,1.0,4.0,67,0.00,,,0.00,WUHU216DAVISVP2,2013-01-29 17:28:00,
2013-01-29 12:30:00,61.1,50.1,30.16,SW,225,1.0,5.0,67,0.00,,,0.00,WUHU216DAVISVP2,2013-01-29 17:30:00,
2013-01-29 12:33:00,61.4,50.5,30.15,SSW,208,1.0,6.0,67,0.00,,,0.00,WUHU216DAVISVP2,2013-01-29 17:33:00,
2013-01-29 12:38:00,62.1,50.3,30.15,SW,233,3.0,6.0,65,0.00,,,0.00,WUHU216DAVISVP2,2013-01-29 17:38:00,
2013-01-29 12:43:00,62.4,50.2,30.15,WSW,257,1.0,6.0,64,0.00,,,0.00,WUHU216DAVISVP2,2013-01-29 17:43:00,
2013-01-29 12:48:00,62.8,50.2,30.15,WSW,249,2.0,6.0,63,0.00,,,0.00,WUHU216DAVISVP2,2013-01-29 17:48:00,
2013-01-29 12:53:00,63.3,50.2,30.15,SSW,207,2.0,5.0,62,0.00,,,0.00,WUHU216DAVISVP2,2013-01-29 17:53:00,
2013-01-29 12:58:00,63.6,49.6,30.15,WSW,246,3.0,5.0,60,0.00,,,0.00,WUHU216DAVISVP2,2013-01-29 17:58:00,
2013-01-29 13:00:00,63.6,49.9,30.15,SW,225,2.0,6.0,61,0.00,,,0.00,WUHU216DAVISVP2,2013-01-29 18:00:00,
2013-01-29 13:03:00,63.2,49.7,30.15,WSW,252,4.0,6.0,61,0.00,,,0.00,WUHU216DAVISVP2,2013-01-29 18:03:00,
2013-01-29 13:08:00,63.3,49.8,30.14,West,259,3.0,7.0,61,0.00,,,0.00,WUHU216DAVISVP2,2013-01-29 18:08:00,
2013-01-29 13:13:00,64.0,50.4,30.14,SW,221,2.0,7.0,61,0.00,,,0.00,WUHU216DAVISVP2,2013-01-29 18:13:00,
2013-01-29 13:18:00,64.8,50.3,30.14,SSE,153,2.0,7.0,59,0.00,,,0.00,WUHU216DAVISVP2,2013-01-29 18:18:00,
2013-01-29 13:23:00,64.8,50.3,30.13,SW,215,2.0,7.0,59,0.00,,,0.00,WUHU216DAVISVP2,2013-01-29 18:23:00,
2013-01-29 13:28:00,65.0,50.0,30.13,SW,228,2.0,6.0,58,0.00,,,0.00,WUHU216DAVISVP2,2013-01-29 18:28:00,
2013-01-29 13:30:00,65.0,49.9,30.13,SW,225,2.0,7.0,58,0.00,,,0.00,WUHU216DAVISVP2,2013-01-29 18:30:00,
2013-01-29 13:33:00,65.3,50.3,30.12,SW,222,2.0,6.0,58,0.00,,,0.00,WUHU216DAVISVP2,2013-01-29 18:33:00,
2013-01-29 13:38:00,65.4,49.9,30.12,SSW,198,1.0,6.0,57,0.00,,,0.00,WUHU216DAVISVP2,2013-01-29 18:38:00,
2013-01-29 13:43:00,65.5,49.4,30.12,SW,215,2.0,6.0,56,0.00,,,0.00,WUHU216DAVISVP2,2013-01-29 18:43:00,
2013-01-29 13:48:00,65.8,48.2,30.11,West,264,3.0,7.0,53,0.00,,,0.00,WUHU216DAVISVP2,2013-01-29 18:48:00,
2013-01-29 13:53:00,65.8,48.2,30.11,SE,137,4.0,8.0,53,0.00,,,0.00,WUHU216DAVISVP2,2013-01-29 18:53:00,
2013-01-29 13:58:00,66.1,48.0,30.10,SSE,158,3.0,8.0,52,0.00,,,0.00,WUHU216DAVISVP2,2013-01-29 18:58:00,
2013-01-29 14:00:00,66.2,48.0,30.10,SW,225,2.0,8.0,52,0.00,,,0.00,WUHU216DAVISVP2,2013-01-29 19:00:00,
2013-01-29 14:03:00,66.2,48.1,30.10,SW,232,1.0,9.0,52,0.00,,,0.00,WUHU216DAVISVP2,2013-01-29 19:03:00,
2013-01-29 14:08:00,66.2,48.6,30.10,SSW,204,3.0,9.0,53,0.00,,,0.00,WUHU216DAVISVP2,2013-01-29 19:08:00,
2013-01-29 14:13:00,66.4,49.3,30.10,SW,235,1.0,9.0,54,0.00,,,0.00,WUHU216DAVISVP2,2013-01-29 19:13:00,
2013-01-29 14:18:00,66.9,49.7,30.10,East,99,1.0,8.0,54,0.00,,,0.00,WUHU216DAVISVP2,2013-01-29 19:18:00,
2013-01-29 14:23:00,67.0,49.4,30.10,WSW,246,5.0,9.0,53,0.00,,,0.00,WUHU216DAVISVP2,2013-01-29 19:23:00,
2013-01-29 14:28:00,67.1,50.0,30.10,SW,215,3.0,9.0,54,0.00,,,0.00,WUHU216DAVISVP2,2013-01-29 19:28:00,
2013-01-29 14:30:00,67.2,50.0,30.10,SW,225,3.0,9.0,54,0.00,,,0.00,WUHU216DAVISVP2,2013-01-29 19:30:00,
2013-01-29 14:33:00,67.5,50.4,30.10,West,264,3.0,9.0,54,0.00,,,0.00,WUHU216DAVISVP2,2013-01-29 19:33:00,
2013-01-29 14:38:00,67.7,50.0,30.09,SE,134,1.0,8.0,53,0.00,,,0.00,WUHU216DAVISVP2,2013-01-29 19:38:00,
2013-01-29 14:43:00,67.7,50.6,30.09,SE,142,4.0,12.0,54,0.00,,,0.00,WUHU216DAVISVP2,2013-01-29 19:43:00,
2013-01-29 14:48:00,67.9,50.7,30.09,SSW,198,6.0,12.0,54,0.00,,,0.00,WUHU216DAVISVP2,2013-01-29 19:48:00,
2013-01-29 14:53:00,67.9,50.1,30.09,SW,233,5.0,11.0,53,0.00,,,0.00,WUHU216DAVISVP2,2013-01-29 19:53:00,
2013-01-29 14:57:00,68.1,50.8,30.09,SW,231,3.0,11.0,54,0.00,,,0.00,WUHU216DAVISVP2,2013-01-29 19:57:00,
2013-01-29 15:00:00,68.1,50.8,30.09,SW,225,4.0,12.0,54,0.00,,,0.00,WUHU216DAVISVP2,2013-01-29 20:00:00,
2013-01-29 15:02:00,68.1,50.9,30.09,SW,236,1.0,11.0,54,0.00,,,0.00,WUHU216DAVISVP2,2013-01-29 20:02:00,
2013-01-29 15:07:00,68.4,51.2,30.09,WSW,242,4.0,11.0,54,0.00,,,0.00,WUHU216DAVISVP2,2013-01-29 20:07:00,
2013-01-29 15:12:00,68.7,51.0,30.09,SSW,205,2.0,13.0,53,0.00,,,0.00,WUHU216DAVISVP2,2013-01-29 20:12:00,
2013-01-29 15:17:00,68.8,51.1,30.09,SSW,208,5.0,13.0,53,0.00,,,0.00,WUHU216DAVISVP2,2013-01-29 20:17:00,
2013-01-29 15:22:00,69.0,51.8,30.09,West,259,11.0,13.0,54,0.00,,,0.00,WUHU216DAVISVP2,2013-01-29 20:22:00,
2013-01-29 15:27:00,69.3,52.1,30.09,SSW,212,4.0,13.0,54,0.00,,,0.00,WUHU216DAVISVP2,2013-01-29 20:27:00,
2013-01-29 15:30:00,69.2,51.3,30.09,SW,225,5.0,13.0,53,0.00,,,0.00,WUHU216DAVISVP2,2013-01-29 20:30:00,
2013-01-29 15:32:00,69.1,51.9,30.09,SSW,212,0.0,13.0,54,0.00,,,0.00,WUHU216DAVISVP2,2013-01-29 20:32:00,
2013-01-29 15:37:00,69.4,52.7,30.09,SW,215,2.0,12.0,55,0.00,,,0.00,WUHU216DAVISVP2,2013-01-29 20:37:00,
2013-01-29 15:42:00,69.6,52.8,30.09,West,262,1.0,11.0,55,0.00,,,0.00,WUHU216DAVISVP2,2013-01-29 20:42:00,
2013-01-29 15:47:00,69.5,53.3,30.09,WSW,255,5.0,11.0,56,0.00,,,0.00,WUHU216DAVISVP2,2013-01-29 20:47:00,
2013-01-29 15:52:00,69.4,53.2,30.09,WSW,249,7.0,10.0,56,0.00,,,0.00,WUHU216DAVISVP2,2013-01-29 20:52:00,
2013-01-29 15:57:00,68.9,53.7,30.09,West,264,8.0,13.0,58,0.00,,,0.00,WUHU216DAVISVP2,2013-01-29 20:57:00,
2013-01-29 16:00:00,68.8,53.4,30.09,SW,225,5.0,13.0,58,0.00,,,0.00,WUHU216DAVISVP2,2013-01-29 21:00:00,
2013-01-29 16:02:00,68.6,53.9,30.09,SW,232,5.0,13.0,59,0.00,,,0.00,WUHU216DAVISVP2,2013-01-29 21:02:00,
2013-01-29 16:07:00,68.4,53.7,30.08,WSW,243,2.0,12.0,59,0.00,,,0.00,WUHU216DAVISVP2,2013-01-29 21:07:00,
2013-01-29 16:12:00,68.5,54.2,30.08,WSW,238,4.0,12.0,60,0.00,,,0.00,WUHU216DAVISVP2,2013-01-29 21:12:00,
2013-01-29 16:17:00,68.7,54.4,30.08,WSW,258,4.0,9.0,60,0.00,,,0.00,WUHU216DAVISVP2,2013-01-29 21:17:00,
2013-01-29 16:22:00,68.9,54.6,30.08,SSW,212,1.0,10.0,60,0.00,,,0.00,WUHU216DAVISVP2,2013-01-29 21:22:00,
2013-01-29 16:27:00,69.3,55.5,30.08,ESE,115,2.0,10.0,61,0.00,,,0.00,WUHU216DAVISVP2,2013-01-29 21:27:00,
2013-01-29 16:30:00,69.3,55.3,30.08,WSW,248,4.0,10.0,61,0.00,,,0.00,WUHU216DAVISVP2,2013-01-29 21:30:00,
2013-01-29 16:32:00,69.4,55.1,30.07,WSW,243,6.0,9.0,60,0.00,,,0.00,WUHU216DAVISVP2,2013-01-29 21:32:00,
2013-01-29 16:37:00,69.2,55.4,30.07,WSW,242,3.0,9.0,61,0.00,,,0.00,WUHU216DAVISVP2,2013-01-29 21:37:00,
2013-01-29 16:42:00,69.0,55.0,30.07,WSW,255,3.0,9.0,61,0.00,,,0.00,WUHU216DAVISVP2,2013-01-29 21:42:00,
2013-01-29 16:47:00,69.0,55.6,30.07,West,268,2.0,8.0,62,0.00,,,0.00,WUHU216DAVISVP2,2013-01-29 21:47:00,
2013-01-29 16:52:00,68.9,55.5,30.06,SSW,210,0.0,8.0,62,0.00,,,0.00,WUHU216DAVISVP2,2013-01-29 21:52:00,
2013-01-29 16:57:00,68.8,55.4,30.06,WSW,245,1.0,6.0,62,0.00,,,0.00,WUHU216DAVISVP2,2013-01-29 21:57:00,
2013-01-29 17:00:00,68.7,55.6,30.06,WSW,248,3.0,9.0,63,0.00,,,0.00,WUHU216DAVISVP2,2013-01-29 22:00:00,
2013-01-29 17:02:00,68.6,55.7,30.06,SSW,212,2.0,5.0,63,0.00,,,0.00,WUHU216DAVISVP2,2013-01-29 22:02:00,
2013-01-29 17:07:00,68.3,55.4,30.06,SW,225,0.0,5.0,63,0.00,,,0.00,WUHU216DAVISVP2,2013-01-29 22:07:00,
2013-01-29 17:12:00,68.0,55.5,30.06,SW,235,0.0,4.0,64,0.00,,,0.00,WUHU216DAVISVP2,2013-01-29 22:12:00,
2013-01-29 17:17:00,67.6,55.6,30.06,WSW,238,0.0,3.0,65,0.00,,,0.00,WUHU216DAVISVP2,2013-01-29 22:17:00,
2013-01-29 17:22:00,67.3,55.7,30.06,SSW,198,0.0,3.0,66,0.00,,,0.00,WUHU216DAVISVP2,2013-01-29 22:22:00,
2013-01-29 17:27:00,66.9,55.3,30.06,WSW,245,0.0,3.0,66,0.00,,,0.00,WUHU216DAVISVP2,2013-01-29 22:27:00,
2013-01-29 17:30:00,66.8,55.5,30.06,WSW,248,0.0,3.0,67,0.00,,,0.00,WUHU216DAVISVP2,2013-01-29 22:30:00,
2013-01-29 17:32:00,66.6,55.5,30.06,SSW,211,0.0,2.0,67,0.00,,,0.00,WUHU216DAVISVP2,2013-01-29 22:32:00,
2013-01-29 17:37:00,66.2,55.5,30.06,SW,219,0.0,2.0,68,0.00,,,0.00,WUHU216DAVISVP2,2013-01-29 22:37:00,
2013-01-29 17:42:00,65.9,55.4,30.06,South,172,1.0,1.0,69,0.00,,,0.00,WUHU216DAVISVP2,2013-01-29 22:42:00,
2013-01-29 17:47:00,65.7,55.2,30.05,SSW,198,0.0,1.0,69,0.00,,,0.00,WUHU216DAVISVP2,2013-01-29 22:47:00,
2013-01-29 17:52:00,65.5,55.5,30.05,SSW,207,0.0,2.0,70,0.00,,,0.00,WUHU216DAVISVP2,2013-01-29 22:52:00,
2013-01-29 17:57:00,65.2,55.2,30.05,SSE,162,0.0,2.0,70,0.00,,,0.00,WUHU216DAVISVP2,2013-01-29 22:57:00,
2013-01-29 18:00:00,65.0,55.4,30.05,SSW,203,0.0,2.0,71,0.00,,,0.00,WUHU216DAVISVP2,2013-01-29 23:00:00,
2013-01-29 18:02:00,64.7,55.1,30.05,SSW,201,0.0,2.0,71,0.00,,,0.00,WUHU216DAVISVP2,2013-01-29 23:02:00,
2013-01-29 18:07:00,64.3,55.6,30.05,SSW,207,1.0,2.0,73,0.00,,,0.00,WUHU216DAVISVP2,2013-01-29 23:07:00,
2013-01-29 18:12:00,64.3,55.6,30.05,SSW,195,1.0,2.0,73,0.00,,,0.00,WUHU216DAVISVP2,2013-01-29 23:12:00,
2013-01-29 18:17:00,64.4,55.7,30.05,SW,221,1.0,2.0,73,0.00,,,0.00,WUHU216DAVISVP2,2013-01-29 23:17:00,
2013-01-29 18:22:00,64.4,55.7,30.05,SSW,200,1.0,2.0,73,0.00,,,0.00,WUHU216DAVISVP2,2013-01-29 23:22:00,
2013-01-29 18:27:00,64.4,55.7,30.05,South,180,1.0,2.0,73,0.00,,,0.00,WUHU216DAVISVP2,2013-01-29 23:27:00,
2013-01-29 18:30:00,64.3,55.5,30.05,SSW,203,1.0,2.0,73,0.00,,,0.00,WUHU216DAVISVP2,2013-01-29 23:30:00,
2013-01-29 18:32:00,64.3,56.0,30.04,SSW,201,1.0,2.0,74,0.00,,,0.00,WUHU216DAVISVP2,2013-01-29 23:32:00,
2013-01-29 18:37:00,64.1,55.8,30.05,SW,225,1.0,2.0,74,0.00,,,0.00,WUHU216DAVISVP2,2013-01-29 23:37:00,
2013-01-29 18:42:00,64.0,55.7,30.05,SW,226,1.0,2.0,74,0.00,,,0.00,WUHU216DAVISVP2,2013-01-29 23:42:00,
2013-01-29 18:47:00,63.9,55.9,30.04,ESE,109,0.0,2.0,75,0.00,,,0.00,WUHU216DAVISVP2,2013-01-29 23:47:00,
2013-01-29 18:52:00,63.7,55.7,30.04,SE,128,1.0,3.0,75,0.00,,,0.00,WUHU216DAVISVP2,2013-01-29 23:52:00,
2013-01-29 18:57:00,63.5,55.9,30.04,SW,222,2.0,3.0,76,0.00,,,0.00,WUHU216DAVISVP2,2013-01-29 23:57:00,
2013-01-29 19:00:00,63.4,55.7,30.04,SW,225,1.0,3.0,76,0.00,,,0.00,WUHU216DAVISVP2,2013-01-30 00:00:00,
2013-01-29 19:02:00,63.3,55.7,30.04,SW,229,0.0,3.0,76,0.00,,,0.00,WUHU216DAVISVP2,2013-01-30 00:02:00,
2013-01-29 19:07:00,63.2,55.5,30.04,SSW,208,1.0,4.0,76,0.00,,,0.00,WUHU216DAVISVP2,2013-01-30 00:07:00,
2013-01-29 19:12:00,63.2,55.5,30.04,SW,229,0.0,4.0,76,0.00,,,0.00,WUHU216DAVISVP2,2013-01-30 00:12:00,
2013-01-29 19:17:00,63.0,55.8,30.04,SSE,158,1.0,3.0,77,0.00,,,0.00,WUHU216DAVISVP2,2013-01-30 00:17:00,
2013-01-29 19:22:00,63.0,55.8,30.04,WSW,240,1.0,3.0,77,0.00,,,0.00,WUHU216DAVISVP2,2013-01-30 00:22:00,
2013-01-29 19:27:00,62.9,55.7,30.04,SW,224,1.0,3.0,77,0.00,,,0.00,WUHU216DAVISVP2,2013-01-30 00:27:00,
2013-01-29 19:30:00,62.9,55.6,30.04,SW,225,1.0,4.0,77,0.00,,,0.00,WUHU216DAVISVP2,2013-01-30 00:30:00,
2013-01-29 19:32:00,62.8,55.6,30.04,SW,225,2.0,3.0,77,0.00,,,0.00,WUHU216DAVISVP2,2013-01-30 00:32:00,
2013-01-29 19:37:00,63.0,55.8,30.04,South,190,1.0,5.0,77,0.00,,,0.00,WUHU216DAVISVP2,2013-01-30 00:37:00,
2013-01-29 19:42:00,63.1,55.9,30.05,SW,218,1.0,5.0,77,0.00,,,0.00,WUHU216DAVISVP2,2013-01-30 00:42:00,
2013-01-29 19:47:00,63.3,56.1,30.04,South,191,2.0,5.0,77,0.00,,,0.00,WUHU216DAVISVP2,2013-01-30 00:47:00,
2013-01-29 19:52:00,63.3,56.1,30.04,SSW,198,2.0,5.0,77,0.00,,,0.00,WUHU216DAVISVP2,2013-01-30 00:52:00,
2013-01-29 19:57:00,63.4,56.2,30.04,SW,222,1.0,4.0,77,0.00,,,0.00,WUHU216DAVISVP2,2013-01-30 00:57:00,
2013-01-29 20:00:00,63.5,56.2,30.05,SSW,203,2.0,5.0,77,0.00,,,0.00,WUHU216DAVISVP2,2013-01-30 01:00:00,
2013-01-29 20:02:00,63.7,56.1,30.05,WSW,238,2.0,6.0,76,0.00,,,0.00,WUHU216DAVISVP2,2013-01-30 01:02:00,
2013-01-29 20:07:00,63.7,56.1,30.05,SSW,197,2.0,6.0,76,0.00,,,0.00,WUHU216DAVISVP2,2013-01-30 01:07:00,
2013-01-29 20:12:00,63.7,56.1,30.05,SSW,212,1.0,5.0,76,0.00,,,0.00,WUHU216DAVISVP2,2013-01-30 01:12:00,
2013-01-29 20:17:00,63.7,56.1,30.05,SW,229,2.0,5.0,76,0.00,,,0.00,WUHU216DAVISVP2,2013-01-30 01:17:00,
2013-01-29 20:22:00,63.7,56.1,30.05,WSW,243,1.0,5.0,76,0.00,,,0.00,WUHU216DAVISVP2,2013-01-30 01:22:00,
2013-01-29 20:27:00,63.6,56.0,30.05,SW,233,2.0,5.0,76,0.00,,,0.00,WUHU216DAVISVP2,2013-01-30 01:27:00,
2013-01-29 20:30:00,63.6,55.9,30.05,SW,225,2.0,6.0,76,0.00,,,0.00,WUHU216DAVISVP2,2013-01-30 01:30:00,
2013-01-29 20:32:00,63.5,55.9,30.05,SW,218,0.0,5.0,76,0.00,,,0.00,WUHU216DAVISVP2,2013-01-30 01:32:00,
2013-01-29 20:37:00,63.5,55.9,30.05,SW,221,1.0,5.0,76,0.00,,,0.00,WUHU216DAVISVP2,2013-01-30 01:37:00,
2013-01-29 20:42:00,63.4,55.8,30.05,SW,219,2.0,5.0,76,0.00,,,0.00,WUHU216DAVISVP2,2013-01-30 01:42:00,
2013-01-29 20:47:00,63.1,55.5,30.05,South,190,2.0,5.0,76,0.00,,,0.00,WUHU216DAVISVP2,2013-01-30 01:47:00,
2013-01-29 20:52:00,62.9,55.3,30.05,SSW,203,1.0,5.0,76,0.00,,,0.00,WUHU216DAVISVP2,2013-01-30 01:52:00,
2013-01-29 20:57:00,62.8,55.6,30.05,SSW,205,0.0,3.0,77,0.00,,,0.00,WUHU216DAVISVP2,2013-01-30 01:57:00,
2013-01-29 21:00:00,62.8,55.5,30.05,SW,225,1.0,5.0,77,0.00,,,0.00,WUHU216DAVISVP2,2013-01-30 02:00:00,
2013-01-29 21:02:00,62.7,55.5,30.05,West,260,1.0,3.0,77,0.00,,,0.00,WUHU216DAVISVP2,2013-01-30 02:02:00,
2013-01-29 21:07:00,62.7,55.5,30.05,SSW,210,6.0,6.0,77,0.00,,,0.00,WUHU216DAVISVP2,2013-01-30 02:07:00,
2013-01-29 21:12:00,62.8,55.6,30.05,SW,222,3.0,6.0,77,0.00,,,0.00,WUHU216DAVISVP2,2013-01-30 02:12:00,
2013-01-29 21:17:00,62.8,55.5,30.05,SSW,212,1.0,6.0,77,0.00,,,0.00,WUHU216DAVISVP2,2013-01-30 02:17:00,
2013-01-29 21:22:00,62.9,55.6,30.05,WSW,238,3.0,6.0,77,0.00,,,0.00,WUHU216DAVISVP2,2013-01-30 02:22:00,
2013-01-29 21:27:00,62.9,55.7,30.05,SW,224,0.0,6.0,77,0.00,,,0.00,WUHU216DAVISVP2,2013-01-30 02:27:00,
2013-01-29 21:30:00,62.8,55.5,30.05,SW,225,2.0,6.0,77,0.00,,,0.00,WUHU216DAVISVP2,2013-01-30 02:30:00,
2013-01-29 21:32:00,62.8,55.6,30.05,SSW,195,3.0,7.0,77,0.00,,,0.00,WUHU216DAVISVP2,2013-01-30 02:32:00,
2013-01-29 21:37:00,62.8,55.6,30.06,WSW,242,4.0,7.0,77,0.00,,,0.00,WUHU216DAVISVP2,2013-01-30 02:37:00,
2013-01-29 21:42:00,62.7,55.5,30.06,WSW,250,1.0,6.0,77,0.00,,,0.00,WUHU216DAVISVP2,2013-01-30 02:42:00,
2013-01-29 21:47:00,62.6,55.7,30.06,SSW,213,3.0,6.0,78,0.00,,,0.00,WUHU216DAVISVP2,2013-01-30 02:47:00,
2013-01-29 21:52:00,62.5,55.6,30.07,WSW,257,2.0,5.0,78,0.00,,,0.00,WUHU216DAVISVP2,2013-01-30 02:52:00,
2013-01-29 21:57:00,62.4,55.5,30.07,WSW,246,2.0,5.0,78,0.00,,,0.00,WUHU216DAVISVP2,2013-01-30 02:57:00,
2013-01-29 22:00:00,62.4,55.4,30.06,SW,225,2.0,7.0,78,0.00,,,0.00,WUHU216DAVISVP2,2013-01-30 03:00:00,
2013-01-29 22:02:00,62.3,55.4,30.06,SW,236,0.0,4.0,78,0.00,,,0.00,WUHU216DAVISVP2,2013-01-30 03:02:00,
2013-01-29 22:07:00,62.4,55.4,30.06,West,264,4.0,4.0,78,0.00,,,0.00,WUHU216DAVISVP2,2013-01-30 03:07:00,
2013-01-29 22:12:00,62.3,55.4,30.05,SW,214,1.0,4.0,78,0.00,,,0.00,WUHU216DAVISVP2,2013-01-30 03:12:00,
2013-01-29 22:17:00,61.9,55.4,30.05,SSE,153,0.0,4.0,79,0.00,,,0.00,WUHU216DAVISVP2,2013-01-30 03:17:00,
2013-01-29 22:22:00,61.6,55.4,30.04,SSW,203,0.0,4.0,80,0.00,,,0.00,WUHU216DAVISVP2,2013-01-30 03:22:00,
2013-01-29 22:27:00,61.2,55.0,30.04,SSW,211,1.0,4.0,80,0.00,,,0.00,WUHU216DAVISVP2,2013-01-30 03:27:00,
2013-01-29 22:30:00,61.2,55.0,30.04,SSW,203,1.0,4.0,80,0.00,,,0.00,WUHU216DAVISVP2,2013-01-30 03:30:00,
2013-01-29 22:32:00,61.1,55.3,30.04,SW,215,0.0,3.0,81,0.00,,,0.00,WUHU216DAVISVP2,2013-01-30 03:32:00,
2013-01-29 22:37:00,61.0,55.2,30.03,South,188,0.0,3.0,81,0.00,,,0.00,WUHU216DAVISVP2,2013-01-30 03:37:00,
2013-01-29 22:42:00,60.8,55.3,30.03,SSW,201,0.0,3.0,82,0.00,,,0.00,WUHU216DAVISVP2,2013-01-30 03:42:00,
2013-01-29 22:47:00,60.6,55.1,30.03,SSW,201,0.0,3.0,82,0.00,,,0.00,WUHU216DAVISVP2,2013-01-30 03:47:00,
2013-01-29 22:52:00,60.7,55.2,30.03,SW,221,1.0,2.0,82,0.00,,,0.00,WUHU216DAVISVP2,2013-01-30 03:52:00,
2013-01-29 22:57:00,60.9,55.4,30.03,WSW,256,1.0,2.0,82,0.00,,,0.00,WUHU216DAVISVP2,2013-01-30 03:57:00,
2013-01-29 23:00:00,60.9,55.4,30.03,SSW,203,0.0,2.0,82,0.00,,,0.00,WUHU216DAVISVP2,2013-01-30 04:00:00,
2013-01-29 23:02:00,60.9,55.4,30.03,WSW,245,1.0,1.0,82,0.00,,,0.00,WUHU216DAVISVP2,2013-01-30 04:02:00,
2013-01-29 23:07:00,61.0,55.5,30.03,WSW,240,0.0,1.0,82,0.00,,,0.00,WUHU216DAVISVP2,2013-01-30 04:07:00,
2013-01-29 23:12:00,60.9,55.4,30.03,WSW,239,0.0,1.0,82,0.00,,,0.00,WUHU216DAVISVP2,2013-01-30 04:12:00,
2013-01-29 23:17:00,60.8,55.3,30.03,WSW,238,0.0,1.0,82,0.00,,,0.00,WUHU216DAVISVP2,2013-01-30 04:17:00,
2013-01-29 23:22:00,60.8,55.3,30.03,SW,231,1.0,2.0,82,0.00,,,0.00,WUHU216DAVISVP2,2013-01-30 04:22:00,
2013-01-29 23:27:00,60.9,55.4,30.03,WSW,257,0.0,4.0,82,0.00,,,0.00,WUHU216DAVISVP2,2013-01-30 04:27:00,
2013-01-29 23:30:00,61.0,55.5,30.04,WSW,248,0.0,4.0,82,0.00,,,0.00,WUHU216DAVISVP2,2013-01-30 04:30:00,
2013-01-29 23:32:00,61.0,55.5,30.03,South,174,0.0,4.0,82,0.00,,,0.00,WUHU216DAVISVP2,2013-01-30 04:32:00,
2013-01-29 23:37:00,61.3,55.8,30.03,WSW,246,1.0,4.0,82,0.00,,,0.00,WUHU216DAVISVP2,2013-01-30 04:37:00,
2013-01-29 23:42:00,61.5,55.7,30.03,WSW,246,1.0,5.0,81,0.00,,,0.00,WUHU216DAVISVP2,2013-01-30 04:42:00,
2013-01-29 23:47:00,61.7,55.9,30.03,WSW,243,3.0,5.0,81,0.00,,,0.00,WUHU216DAVISVP2,2013-01-30 04:47:00,
2013-01-29 23:52:00,61.9,56.0,30.02,SSW,212,1.0,4.0,81,0.00,,,0.00,WUHU216DAVISVP2,2013-01-30 04:52:00,
2013-01-29 23:57:00,62.0,56.1,30.02,SW,225,1.0,4.0,81,0.00,,,0.00,WUHU216DAVISVP2,2013-01-30 04:57:00,